Location: Feigenhofen
(48.4939°N, 10.7793°E)
Time: 23:20:15
(UTC+00:00)

Gblst 52 Del rocket - Pass Details

Date: 26 May 2022
Orbit: 805 x 1365 km, 51.5° (Epoch: 24 June)

Event Time Altitude Azimuth Distance (km) Brightness Sun altitude
Rises 23:58:56 0° 261° (W) 3,665 7.3 -19.7°
Reaches altitude 10° 00:01:40 10° 264° (W) 2,641 6.6 -19.6°
Maximum altitude 00:07:47 71° 348° (NNW) 909 4.5 -19.4°
Drops below altitude 10° 00:13:22 10° 73° (ENE) 2,412 7.0 -19.2°
Sets 00:15:46 0° 76° (ENE) 3,326 7.7 -19.1°
